| time (UTC) | temp C | wind direction | speed KPH | gust KPH | rain 1hr cm | rain 24hr cm | rain mn cm | humidity % | barometer mb |
| 20260507044547 | 11 | 318 | 0.0 | 1.6 | 0.25 | 0.48 | 0.41 | 99 | 1012.7 |
| 20260507043602 | 11 | 42 | 0.0 | 1.6 | 0.28 | 0.48 | 0.41 | 99 | 1012.6 |
| 20260507042619 | 11 | 324 | 1.6 | 3.2 | 0.25 | 0.43 | 0.33 | 99 | 1012.6 |
| 20260507041524 | 11 | 310 | 1.6 | 3.2 | 0.25 | 0.43 | 0.30 | 99 | 1012.7 |
| 20260507040620 | 11 | 333 | 3.2 | 4.8 | 0.28 | 0.46 | 0.28 | 99 | 1012.4 |
| 20260507035532 | 11 | 326 | 1.6 | 3.2 | 0.20 | 0.41 | 0.20 | 99 | 1012.6 |
| 20260507034603 | 11 | 319 | 3.2 | 8.0 | 0.15 | 0.36 | 0.15 | 99 | 1012.6 |
| 20260507033532 | 11 | 350 | 1.6 | 3.2 | 0.13 | 0.33 | 0.13 | 99 | 1012.5 |
| 20260507032538 | 11 | 340 | 3.2 | 4.8 | 0.08 | 0.28 | 0.08 | 99 | 1012.4 |
| 20260507031601 | 12 | 10 | 3.2 | 8.0 | 0.05 | 0.25 | 0.05 | 99 | 1012.5 |
| 20260507030532 | 12 | 351 | 3.2 | 8.0 | 0.00 | 0.20 | 0.00 | 99 | 1012.5 |
| 20260507025611 | 12 | 349 | 4.8 | 9.7 | 0.00 | 0.20 | 0.00 | 99 | 1012.5 |
| 20260507024619 | 12 | 15 | 6.4 | 9.7 | 0.00 | 0.20 | 0.00 | 99 | 1012.4 |
| 20260507023532 | 12 | 15 | 4.8 | 9.7 | 0.00 | 0.20 | 0.00 | 99 | 1012.4 |
| 20260507022632 | 12 | 332 | 1.6 | 4.8 | 0.00 | 0.20 | 0.00 | 99 | 1012.4 |
| 20260507021532 | 12 | 354 | 1.6 | 3.2 | 0.00 | 0.20 | 0.00 | 99 | 1012.5 |
| 20260507020639 | 12 | 329 | 3.2 | 4.8 | 0.00 | 0.20 | 0.00 | 99 | 1012.5 |
| 20260507015556 | 12 | 318 | 3.2 | 4.8 | 0.00 | 0.20 | 0.00 | 99 | 1012.6 |
| 20260507014531 | 12 | 330 | 1.6 | 4.8 | 0.00 | 0.20 | 0.00 | 99 | 1012.5 |
| 20260507013523 | 12 | 331 | 1.6 | 1.6 | 0.00 | 0.20 | 0.00 | 99 | 1012.2 |
| 20260507012547 | 12 | 323 | 1.6 | 3.2 | 0.00 | 0.20 | 0.00 | 99 | 1012.3 |
| 20260507011611 | 12 | 0.0 | 0.0 | 0.00 | 0.20 | 0.00 | 99 | 1012.3 | |
| 20260507010604 | 12 | 68 | 0.0 | 1.6 | 0.00 | 0.20 | 0.00 | 99 | 1012.4 |
| 20260507005523 | 12 | 190 | 0.0 | 1.6 | 0.00 | 0.20 | 0.00 | 99 | 1012.4 |
| 20260507004547 | 13 | 281 | 0.0 | 1.6 | 0.00 | 0.20 | 0.00 | 99 | 1012.3 |
| 20260507003523 | 13 | 355 | 1.6 | 3.2 | 0.00 | 0.20 | 0.00 | 99 | 1012.2 |
| 20260507002531 | 13 | 16 | 1.6 | 3.2 | 0.00 | 0.20 | 0.00 | 99 | 1012.1 |
| 20260507001611 | 13 | 333 | 1.6 | 3.2 | 0.00 | 0.20 | 0.00 | 99 | 1012.2 |
| 20260507000531 | 13 | 332 | 1.6 | 3.2 | 0.00 | 0.20 | 0.00 | 99 | 1012.2 |
| 20260506235615 | 13 | 343 | 0.0 | 3.2 | 0.00 | 0.20 | 0.00 | 99 | 1012.1 |
| 20260506234609 | 13 | 355 | 1.6 | 3.2 | 0.00 | 0.20 | 0.00 | 99 | 1012.2 |
| 20260506233556 | 13 | 13 | 1.6 | 3.2 | 0.00 | 0.20 | 0.00 | 99 | 1012.1 |
| 20260506232604 | 13 | 351 | 1.6 | 8.0 | 0.00 | 0.20 | 0.00 | 99 | 1012.0 |
| 20260506231555 | 12 | 12 | 0.0 | 1.6 | 0.00 | 0.20 | 0.00 | 99 | 1011.9 |
| 20260506230603 | 12 | 3 | 0.0 | 1.6 | 0.00 | 0.20 | 0.00 | 99 | 1011.9 |
| 20260506225631 | 12 | 0.0 | 0.0 | 0.00 | 0.20 | 0.00 | 99 | 1011.8 | |
| 20260506224603 | 12 | 1 | 0.0 | 1.6 | 0.00 | 0.20 | 0.00 | 99 | 1011.9 |
| 20260506223523 | 12 | 108 | 1.6 | 3.2 | 0.00 | 0.20 | 0.00 | 99 | 1011.8 |
| 20260506222604 | 13 | 355 | 3.2 | 4.8 | 0.00 | 0.20 | 0.00 | 99 | 1011.7 |
| 20260506221523 | 13 | 338 | 3.2 | 3.2 | 0.00 | 0.20 | 0.00 | 99 | 1011.7 |
| 20260506220552 | 13 | 10 | 1.6 | 1.6 | 0.00 | 0.20 | 0.00 | 99 | 1011.9 |
| 20260506215611 | 13 | 2 | 1.6 | 1.6 | 0.00 | 0.20 | 0.20 | 99 | 1011.6 |
| 20260506214533 | 13 | 336 | 1.6 | 3.2 | 0.00 | 0.20 | 0.20 | 99 | 1011.7 |
| 20260506213611 | 13 | 340 | 1.6 | 3.2 | 0.00 | 0.20 | 0.20 | 99 | 1011.6 |
| 20260506212633 | 13 | 324 | 1.6 | 3.2 | 0.00 | 0.20 | 0.20 | 99 | 1011.5 |
| 20260506211532 | 13 | 357 | 1.6 | 3.2 | 0.00 | 0.20 | 0.20 | 99 | 1011.6 |
| 20260506210619 | 13 | 4 | 3.2 | 8.0 | 0.00 | 0.20 | 0.20 | 99 | 1011.5 |
| 20260506205532 | 13 | 25 | 3.2 | 4.8 | 0.00 | 0.23 | 0.20 | 99 | 1011.4 |
| 20260506204532 | 13 | 12 | 1.6 | 3.2 | 0.00 | 0.23 | 0.20 | 99 | 1011.4 |
| 20260506203532 | 13 | 341 | 1.6 | 3.2 | 0.00 | 0.30 | 0.20 | 99 | 1011.3 |
| 20260506202547 | 13 | 35 | 1.6 | 3.2 | 0.00 | 0.46 | 0.20 | 99 | 1011.2 |
| 20260506201611 | 13 | 11 | 3.2 | 8.0 | 0.00 | 0.66 | 0.20 | 99 | 1011.2 |
| 20260506200552 | 13 | 351 | 3.2 | 8.0 | 0.00 | 0.69 | 0.20 | 99 | 1011.3 |
| 20260506195612 | 13 | 26 | 1.6 | 3.2 | 0.00 | 0.69 | 0.20 | 99 | 1011.2 |
| 20260506194533 | 13 | 359 | 1.6 | 4.8 | 0.00 | 0.71 | 0.20 | 99 | 1011.0 |
| 20260506193532 | 13 | 356 | 4.8 | 8.0 | 0.00 | 0.71 | 0.20 | 99 | 1010.8 |
| 20260506192532 | 13 | 31 | 3.2 | 8.0 | 0.00 | 0.74 | 0.20 | 99 | 1010.6 |
| 20260506191532 | 13 | 74 | 4.8 | 9.7 | 0.00 | 0.74 | 0.20 | 99 | 1010.2 |
| 20260506190532 | 13 | 27 | 6.4 | 12.9 | 0.00 | 0.74 | 0.20 | 99 | 1010.0 |
| 20260506185523 | 14 | 7 | 6.4 | 11.3 | 0.00 | 0.76 | 0.20 | 99 | 1010.1 |
| 20260506184547 | 14 | 340 | 4.8 | 12.9 | 0.00 | 0.76 | 0.20 | 99 | 1010.2 |
| 20260506183531 | 14 | 320 | 6.4 | 12.9 | 0.00 | 0.76 | 0.20 | 99 | 1010.2 |
| 20260506182623 | 14 | 290 | 11.3 | 25.7 | 0.00 | 0.76 | 0.20 | 99 | 1010.3 |
| 20260506181533 | 14 | 331 | 1.6 | 3.2 | 0.00 | 0.76 | 0.20 | 99 | 1009.7 |
| 20260506180604 | 14 | 0.0 | 0.0 | 0.00 | 0.76 | 0.20 | 99 | 1009.5 | |
| 20260506175556 | 15 | 142 | 3.2 | 4.8 | 0.00 | 0.76 | 0.20 | 99 | 1009.4 |
| 20260506174532 | 15 | 43 | 0.0 | 1.6 | 0.00 | 0.76 | 0.20 | 99 | 1009.2 |
| 20260506173532 | 15 | 2 | 3.2 | 4.8 | 0.00 | 0.79 | 0.20 | 99 | 1008.9 |
| 20260506172532 | 15 | 33 | 3.2 | 9.7 | 0.00 | 0.79 | 0.20 | 99 | 1008.9 |
| 20260506171532 | 14 | 321 | 3.2 | 4.8 | 0.00 | 0.79 | 0.20 | 99 | 1008.7 |
| 20260506165553 | 14 | 325 | 1.6 | 3.2 | 0.00 | 0.79 | 0.20 | 99 | 1008.6 |
| 20260506164604 | 14 | 359 | 3.2 | 4.8 | 0.00 | 0.79 | 0.20 | 99 | 1008.7 |
| 20260506163524 | 14 | 354 | 6.4 | 9.7 | 0.00 | 0.79 | 0.20 | 99 | 1008.6 |
| 20260506162548 | 14 | 36 | 4.8 | 9.7 | 0.00 | 0.81 | 0.20 | 99 | 1008.5 |
| 20260506161524 | 15 | 39 | 9.7 | 17.7 | 0.00 | 0.84 | 0.20 | 99 | 1007.9 |
| 20260506160548 | 15 | 68 | 9.7 | 16.1 | 0.00 | 0.84 | 0.20 | 99 | 1007.5 |
| 20260506155612 | 15 | 39 | 9.7 | 14.5 | 0.00 | 0.84 | 0.20 | 99 | 1007.6 |
| 20260506154532 | 15 | 18 | 9.7 | 22.5 | 0.00 | 0.84 | 0.20 | 99 | 1007.8 |
| 20260506153557 | 16 | 27 | 11.3 | 17.7 | 0.00 | 0.84 | 0.20 | 99 | 1007.9 |
| 20260506152621 | 15 | 27 | 9.7 | 14.5 | 0.00 | 0.84 | 0.20 | 99 | 1007.8 |
| 20260506151533 | -17 | 0.0 | 0.0 | 0.00 | 0.86 | 0.20 | 1007.8 | ||
| 20260506150552 | -17 | 0.0 | 0.0 | 0.00 | 0.86 | 0.20 | 1008.0 | ||
| 20260506145652 | -17 | 0.0 | 0.0 | 0.00 | 0.86 | 0.20 | 1007.7 | ||
| 20260506144532 | -17 | 0.0 | 0.0 | 0.00 | 0.86 | 0.20 | 1007.5 | ||
| 20260506143532 | -17 | 0.0 | 0.0 | 0.00 | 0.86 | 0.20 | 1007.3 | ||
| 20260506142532 | -17 | 0.0 | 0.0 | 0.00 | 0.86 | 0.20 | 1007.4 | ||
| 20260506141532 | -17 | 0.0 | 0.0 | 0.00 | 0.86 | 0.20 | 1007.6 | ||
| 20260506140532 | -17 | 0.0 | 0.0 | 0.00 | 0.86 | 0.20 | 1007.6 | ||
| 20260506135532 | -17 | 0.0 | 0.0 | 0.00 | 0.86 | 0.20 | 1007.7 | ||
| 20260506134533 | -17 | 0.0 | 0.0 | 0.00 | 0.86 | 0.20 | 1007.9 | ||
| 20260506133532 | -17 | 0.0 | 0.0 | 0.00 | 0.86 | 0.20 | 1008.1 | ||
| 20260506132633 | -17 | 0.0 | 0.0 | 0.00 | 0.86 | 0.20 | 1008.1 | ||
| 20260506131633 | -17 | 0.0 | 0.0 | 0.00 | 0.86 | 0.20 | 1008.2 | ||
| 20260506130532 | -17 | 0.0 | 0.0 | 0.00 | 0.86 | 0.20 | 1008.4 | ||
| 20260506125612 | -17 | 0.0 | 0.0 | 0.00 | 0.86 | 0.20 | 1008.4 | ||
| 20260506124532 | -17 | 0.0 | 0.0 | 0.00 | 0.86 | 0.20 | 1008.5 | ||
| 20260506123552 | -17 | 0.0 | 0.0 | 0.00 | 0.86 | 0.20 | 1008.4 | ||
| 20260506122532 | -17 | 0.0 | 0.0 | 0.00 | 0.86 | 0.20 | 1008.4 | ||
| 20260506121532 | -17 | 0.0 | 0.0 | 0.00 | 0.86 | 0.20 | 1008.5 | ||
| 20260506120532 | -17 | 0.0 | 0.0 | 0.00 | 0.86 | 0.20 | 1008.5 | ||
| 20260506115552 | -17 | 0.0 | 0.0 | 0.00 | 0.86 | 0.20 | 1008.7 | ||
| 20260506114533 | -17 | 0.0 | 0.0 | 0.00 | 0.86 | 0.20 | 1008.9 | ||
| 20260506113532 | -17 | 0.0 | 0.0 | 0.00 | 0.86 | 0.20 | 1008.9 | ||
| 20260506112532 | -17 | 0.0 | 0.0 | 0.00 | 0.86 | 0.20 | 1008.9 | ||
| 20260506111632 | -17 | 0.0 | 0.0 | 0.00 | 0.86 | 0.20 | 1009.1 | ||
| 20260506110652 | -17 | 0.0 | 0.0 | 0.00 | 0.86 | 0.20 | 1009.2 | ||
| 20260506105632 | -17 | 0.0 | 0.0 | 0.00 | 0.86 | 0.20 | 1009.2 | ||
| 20260506104632 | -17 | 0.0 | 0.0 | 0.00 | 0.86 | 0.20 | 1009.3 | ||
| 20260506103653 | -17 | 0.0 | 0.0 | 0.00 | 0.86 | 0.20 | 1009.4 | ||
| 20260506102632 | -17 | 0.0 | 0.0 | 0.00 | 0.86 | 0.20 | 1009.4 | ||
| 20260506101632 | -17 | 0.0 | 0.0 | 0.00 | 0.89 | 0.20 | 1009.4 | ||
| 20260506100632 | -17 | 0.0 | 0.0 | 0.00 | 0.94 | 0.20 | 1009.5 | ||
| 20260506095632 | -17 | 0.0 | 0.0 | 0.00 | 0.99 | 0.20 | 1009.4 | ||
| 20260506094632 | -17 | 0.0 | 0.0 | 0.00 | 1.04 | 0.20 | 1009.2 | ||
| 20260506093652 | -17 | 0.0 | 0.0 | 0.00 | 1.09 | 0.20 | 1009.4 | ||
| 20260506092632 | -17 | 0.0 | 0.0 | 0.00 | 1.09 | 0.20 | 1009.3 | ||
| 20260506091632 | -17 | 0.0 | 0.0 | 0.00 | 1.12 | 0.20 | 1009.3 | ||
| 20260506090713 | -17 | 0.0 | 0.0 | 0.00 | 1.12 | 0.20 | 1009.2 | ||
| 20260506085632 | -17 | 0.0 | 0.0 | 0.00 | 1.14 | 0.20 | 1009.2 | ||
| 20260506084652 | -17 | 0.0 | 0.0 | 0.00 | 1.17 | 0.20 | 1009.6 | ||
| 20260506083632 | -17 | 0.0 | 0.0 | 0.00 | 1.17 | 0.20 | 1009.7 | ||
| 20260506082633 | -17 | 0.0 | 0.0 | 0.00 | 1.17 | 0.20 | 1010.0 | ||
| 20260506081652 | -17 | 0.0 | 0.0 | 0.00 | 1.17 | 0.20 | 1009.6 | ||
| 20260506080632 | -17 | 0.0 | 0.0 | 0.00 | 1.17 | 0.20 | 1009.6 | ||
| 20260506072618 | -17 | 134 | 17.7 | 24.1 | 0.08 | 1.19 | 0.20 | 1009.1 | |
| 20260506071558 | 13 | 126 | 22.5 | 35.4 | 0.08 | 1.22 | 0.20 | 99 | 1009.2 |
| 20260506070622 | 13 | 108 | 19.3 | 29.0 | 0.08 | 1.24 | 0.20 | 99 | 1008.8 |
| 20260506061554 | 13 | 120 | 11.3 | 14.5 | 0.00 | 1.47 | 0.13 | 99 | 1009.6 |
| 20260506060637 | 13 | 132 | 14.5 | 20.9 | 0.00 | 1.52 | 0.13 | 99 | 1009.8 |
| 20260506050630 | 12 | 110 | 11.3 | 14.5 | 0.10 | 1.63 | 0.13 | 99 | 1009.7 |